• In Italy
  • List of Countries
  • For 7 days
  • Water Temperature
  • Satellite Maps
  • Weather Map
  • Weather Widgets
  • user-avatar
    Login

    Hourly Weather Voyteli

    Today, 19 April, Thursday

    Time Temperature Precipitation Wind Pressure Humidity
    00:00 +8°C° 0 mm 5 mps 740 mmHg 80%
    01:00 +7°C° 0 mm 5 mps 740 mmHg 83%
    02:00 +7°C° 0 mm 5 mps 740 mmHg 87%
    03:00 +7°C° 0 mm 5 mps 740 mmHg 87%
    04:00 +7°C° 0 mm 5 mps 740 mmHg 86%
    05:00 +7°C° 0 mm 6 mps 739 mmHg 86%
    06:00 +7°C° 0 mm 6 mps 739 mmHg 84%
    07:00 +7°C° 0 mm 6 mps 739 mmHg 82%
    08:00 +6°C° 0 mm 7 mps 739 mmHg 80%
    09:00 +8°C° 0 mm 7 mps 739 mmHg 74%
    10:00 +9°C° 0 mm 8 mps 739 mmHg 68%
    11:00 +10°C° 0 mm 8 mps 739 mmHg 62%
    12:00 +10°C° 0 mm 8 mps 739 mmHg 62%
    13:00 +10°C° 0 mm 8 mps 739 mmHg 63%
    14:00 +9°C° 0 mm 8 mps 739 mmHg 63%
    15:00 +9°C° 0 mm 8 mps 739 mmHg 64%
    16:00 +9°C° 0 mm 7 mps 739 mmHg 65%
    17:00 +9°C° 0 mm 7 mps 739 mmHg 65%
    18:00 +8°C° 0 mm 7 mps 740 mmHg 68%
    19:00 +8°C° 0 mm 6 mps 740 mmHg 72%
    20:00 +7°C° 0 mm 5 mps 741 mmHg 75%
    21:00 +7°C° 0 mm 5 mps 741 mmHg 77%
    22:00 +6°C° 0 mm 5 mps 741 mmHg 80%
    23:00 +6°C° 0 mm 4 mps 742 mmHg 83%

    Tomorrow, 20 April, Friday

    Time Temperature Precipitation Wind Pressure Humidity
    00:00 +5°C° 0 mm 4 mps 742 mmHg 85%
    01:00 +5°C° 0 mm 4 mps 742 mmHg 87%
    02:00 +4°C° 0 mm 4 mps 742 mmHg 89%
    03:00 +4°C° 0 mm 4 mps 742 mmHg 90%
    04:00 +3°C° 0 mm 4 mps 742 mmHg 91%
    05:00 +3°C° 0 mm 3 mps 742 mmHg 92%
    06:00 +4°C° 0 mm 4 mps 742 mmHg 86%
    07:00 +5°C° 0 mm 4 mps 743 mmHg 81%
    08:00 +6°C° 0 mm 4 mps 743 mmHg 75%
    09:00 +8°C° 0 mm 4 mps 743 mmHg 68%
    10:00 +11°C° 0 mm 4 mps 743 mmHg 60%
    11:00 +13°C° 0 mm 4 mps 743 mmHg 53%
    12:00 +14°C° 0 mm 4 mps 743 mmHg 51%
    13:00 +14°C° 0 mm 4 mps 742 mmHg 49%
    14:00 +15°C° 0 mm 4 mps 742 mmHg 47%
    15:00 +15°C° 0 mm 4 mps 742 mmHg 47%
    16:00 +15°C° 0 mm 4 mps 741 mmHg 47%
    17:00 +15°C° 0 mm 4 mps 741 mmHg 47%
    18:00 +14°C° 0 mm 3 mps 740 mmHg 54%
    19:00 +12°C° 0 mm 3 mps 740 mmHg 60%
    20:00 +10°C° 0 mm 2 mps 740 mmHg 67%
    21:00 +10°C° 0 mm 3 mps 739 mmHg 69%
    22:00 +10°C° 0 mm 3 mps 739 mmHg 71%
    23:00 +9°C° 0 mm 3 mps 738 mmHg 74%

    Day after tomorrow, 21 April, Saturday

    Time Temperature Precipitation Wind Pressure Humidity
    00:00 +8°C° 0 mm 4 mps 738 mmHg 74%
    01:00 +8°C° 0 mm 4 mps 737 mmHg 75%
    02:00 +8°C° 0 mm 4 mps 736 mmHg 75%
    03:00 +8°C° 0 mm 5 mps 736 mmHg 75%
    04:00 +8°C° 0 mm 5 mps 735 mmHg 76%
    05:00 +8°C° 0 mm 5 mps 734 mmHg 76%
    06:00 +9°C° 0 mm 6 mps 733 mmHg 73%
    07:00 +10°C° 0 mm 7 mps 733 mmHg 71%
    08:00 +11°C° 0 mm 7 mps 732 mmHg 68%
    09:00 +13°C° 0 mm 8 mps 731 mmHg 68%
    10:00 +15°C° 0 mm 8 mps 731 mmHg 67%
    11:00 +16°C° 0 mm 8 mps 731 mmHg 67%
    12:00 +16°C° 0.1 mm 8 mps 731 mmHg 62%
    13:00 +16°C° 0.1 mm 9 mps 731 mmHg 58%
    14:00 +16°C° 0.1 mm 9 mps 730 mmHg 53%
    15:00 +16°C° 0.1 mm 8 mps 731 mmHg 51%
    16:00 +15°C° 0.1 mm 8 mps 731 mmHg 50%
    17:00 +13°C° 0.1 mm 8 mps 731 mmHg 48%
    18:00 +12°C° 0 mm 7 mps 731 mmHg 50%
    19:00 +10°C° 0 mm 6 mps 732 mmHg 52%
    20:00 +9°C° 0 mm 5 mps 732 mmHg 53%
    21:00 +8°C° 0 mm 5 mps 733 mmHg 56%
    22:00 +7°C° 0 mm 5 mps 733 mmHg 58%
    23:00 +6°C° 0 mm 5 mps 733 mmHg 60%

    22 April, Sunday

    Time Temperature Precipitation Wind Pressure Humidity
    00:00 +5°C° 0 mm 4 mps 734 mmHg 64%
    01:00 +5°C° 0 mm 4 mps 734 mmHg 68%
    02:00 +4°C° 0 mm 4 mps 734 mmHg 71%
    03:00 +4°C° 0 mm 4 mps 734 mmHg 74%
    04:00 +4°C° 0 mm 4 mps 734 mmHg 76%
    05:00 +4°C° 0 mm 4 mps 734 mmHg 78%
    06:00 +5°C° 0 mm 5 mps 734 mmHg 74%
    07:00 +7°C° 0 mm 5 mps 735 mmHg 69%
    08:00 +8°C° 0 mm 5 mps 735 mmHg 65%
    09:00 +9°C° 0 mm 5 mps 735 mmHg 58%
    10:00 +11°C° 0 mm 6 mps 735 mmHg 51%
    11:00 +13°C° 0 mm 6 mps 735 mmHg 44%
    12:00 +13°C° 0 mm 6 mps 735 mmHg 43%
    13:00 +14°C° 0 mm 6 mps 734 mmHg 41%
    14:00 +14°C° 0 mm 6 mps 734 mmHg 39%
    15:00 +14°C° 0 mm 6 mps 734 mmHg 42%
    16:00 +14°C° 0 mm 5 mps 734 mmHg 45%
    17:00 +13°C° 0 mm 5 mps 734 mmHg 48%
    18:00 +12°C° 0 mm 4 mps 734 mmHg 55%
    19:00 +10°C° 0 mm 3 mps 734 mmHg 62%
    20:00 +9°C° 0 mm 2 mps 734 mmHg 69%
    21:00 +10°C° 0 mm 1 mps 734 mmHg 70%
    22:00 +9°C° 0 mm 1 mps 734 mmHg 72%
    23:00 +9°C° 0 mm 1 mps 734 mmHg 74%

    23 April, Monday

    Time Temperature Precipitation Wind Pressure Humidity
    00:00 +8°C° 0 mm 1 mps 734 mmHg 75%
    01:00 +8°C° 0 mm 1 mps 734 mmHg 77%
    02:00 +7°C° 0 mm 1 mps 734 mmHg 79%
    03:00 +6°C° 0 mm 1 mps 734 mmHg 80%
    04:00 +6°C° 0 mm 1 mps 734 mmHg 80%
    05:00 +5°C° 0 mm 1 mps 734 mmHg 81%
    06:00 +6°C° 0 mm 1 mps 734 mmHg 74%
    07:00 +8°C° 0 mm 1 mps 734 mmHg 67%
    08:00 +9°C° 0 mm 1 mps 735 mmHg 59%
    09:00 +11°C° 0 mm 1 mps 735 mmHg 54%
    10:00 +12°C° 0 mm 1 mps 735 mmHg 49%
    11:00 +14°C° 0 mm 1 mps 735 mmHg 43%
    12:00 +15°C° 0 mm 1 mps 734 mmHg 42%
    13:00 +15°C° 0 mm 1 mps 734 mmHg 41%
    14:00 +16°C° 0 mm 1 mps 733 mmHg 39%
    15:00 +16°C° 0 mm 2 mps 733 mmHg 42%
    16:00 +16°C° 0 mm 2 mps 732 mmHg 44%
    17:00 +16°C° 0 mm 2 mps 732 mmHg 46%
    18:00 +13°C° 0 mm 3 mps 732 mmHg 53%
    19:00 +12°C° 0 mm 3 mps 731 mmHg 59%
    20:00 +10°C° 0 mm 3 mps 731 mmHg 66%
    21:00 +10°C° 0 mm 4 mps 730 mmHg 65%
    22:00 +10°C° 0 mm 4 mps 730 mmHg 65%
    23:00 +9°C° 0 mm 5 mps 729 mmHg 64%

    24 April, Tuesday

    Time Temperature Precipitation Wind Pressure Humidity
    00:00 +9°C° 0.3 mm 5 mps 729 mmHg 67%
    01:00 +9°C° 0.3 mm 5 mps 728 mmHg 70%
    02:00 +9°C° 0.3 mm 5 mps 727 mmHg 72%
    03:00 +8°C° 1.5 mm 5 mps 727 mmHg 78%
    04:00 +8°C° 1.5 mm 5 mps 727 mmHg 84%
    05:00 +8°C° 1.5 mm 5 mps 727 mmHg 90%
    06:00 +8°C° 0.1 mm 5 mps 727 mmHg 87%
    07:00 +8°C° 0.1 mm 6 mps 727 mmHg 84%
    08:00 +8°C° 0.1 mm 6 mps 728 mmHg 81%
    09:00 +9°C° 0 mm 6 mps 728 mmHg 75%
    10:00 +10°C° 0 mm 6 mps 728 mmHg 69%
    11:00 +11°C° 0 mm 6 mps 728 mmHg 63%
    12:00 +11°C° 0.1 mm 6 mps 728 mmHg 63%
    13:00 +10°C° 0.1 mm 6 mps 728 mmHg 62%
    14:00 +10°C° 0.1 mm 6 mps 729 mmHg 62%
    15:00 +10°C° 0 mm 6 mps 728 mmHg 62%
    16:00 +10°C° 0 mm 5 mps 728 mmHg 61%
    17:00 +10°C° 0 mm 5 mps 728 mmHg 61%
    18:00 +8°C° 0 mm 4 mps 728 mmHg 68%
    19:00 +8°C° 0 mm 3 mps 728 mmHg 74%
    20:00 +7°C° 0 mm 2 mps 728 mmHg 80%
    21:00 +6°C° 0 mm 2 mps 728 mmHg 83%
    22:00 +6°C° 0 mm 2 mps 728 mmHg 86%
    23:00 +6°C° 0 mm 2 mps 728 mmHg 88%
    Show more